Time,TemperatureF,DewpointF,PressureIn,WindDirection,WindDirectionDegrees,WindSpeedMPH,WindSpeedGustMPH,Humidity,HourlyPrecipIn,Conditions,Clouds,dailyrainin,SoftwareType,DateUTC
2013-05-01 00:00:00,69.1,58.9,29.90,SSW,212,0.0,0.0,70,0.00,,---,0.28,VWS V14.01,2013-05-01 04:00:00,
2013-05-01 00:01:00,69.1,58.9,29.90,SSW,208,0.0,0.0,70,0.00,,---,0.00,VWS V14.01,2013-05-01 04:01:00,
2013-05-01 00:02:00,69.1,58.9,29.90,SW,219,0.0,0.0,70,0.00,,---,0.00,VWS V14.01,2013-05-01 04:02:00,
2013-05-01 00:07:00,69.1,58.9,29.90,SSW,196,0.0,0.0,70,0.00,,---,0.00,VWS V14.01,2013-05-01 04:07:00,
2013-05-01 00:12:00,69.1,58.9,29.90,SW,229,0.0,0.0,70,0.00,,---,0.00,VWS V14.01,2013-05-01 04:12:00,
2013-05-01 00:17:00,68.9,58.7,29.90,South,186,0.0,0.0,70,0.00,,---,0.00,VWS V14.01,2013-05-01 04:17:00,
2013-05-01 00:22:00,68.9,58.7,29.90,WSW,246,0.0,0.0,70,0.00,,---,0.00,VWS V14.01,2013-05-01 04:22:00,
2013-05-01 00:27:00,68.9,58.7,29.90,WSW,237,0.0,0.0,70,0.00,,---,0.00,VWS V14.01,2013-05-01 04:27:00,
2013-05-01 00:32:00,68.9,59.1,29.91,SSW,213,0.0,0.0,71,0.00,,---,0.00,VWS V14.01,2013-05-01 04:32:00,
2013-05-01 00:37:00,68.9,58.7,29.91,SW,215,0.0,0.0,70,0.00,,---,0.00,VWS V14.01,2013-05-01 04:37:00,
2013-05-01 00:42:00,69.1,58.9,29.91,SW,221,0.0,0.0,70,0.00,,---,0.00,VWS V14.01,2013-05-01 04:42:00,
2013-05-01 00:47:00,69.1,58.9,29.91,WSW,247,0.0,0.0,70,0.00,,---,0.00,VWS V14.01,2013-05-01 04:47:00,
2013-05-01 00:52:00,69.1,58.9,29.91,SW,223,0.0,0.0,70,0.00,,---,0.00,VWS V14.01,2013-05-01 04:52:00,
2013-05-01 00:58:00,69.3,59.1,29.91,SSW,193,0.0,0.0,70,0.00,,---,0.00,VWS V14.01,2013-05-01 04:58:00,
2013-05-01 01:03:00,69.3,58.7,29.91,SW,217,0.0,0.0,69,0.00,,---,0.00,VWS V14.01,2013-05-01 05:03:00,
2013-05-01 01:08:00,69.3,59.1,29.91,South,186,0.0,0.0,70,0.00,,---,0.00,VWS V14.01,2013-05-01 05:08:00,
2013-05-01 01:13:00,69.4,59.2,29.91,SW,218,0.0,0.0,70,0.00,,---,0.00,VWS V14.01,2013-05-01 05:13:00,
2013-05-01 01:18:00,69.4,59.2,29.92,SW,224,0.0,0.0,70,0.00,,---,0.00,VWS V14.01,2013-05-01 05:18:00,
2013-05-01 01:23:00,69.4,59.2,29.92,WSW,243,0.0,0.0,70,0.00,,---,0.00,VWS V14.01,2013-05-01 05:23:00,
2013-05-01 01:28:00,69.3,59.1,29.92,South,186,0.0,0.0,70,0.00,,---,0.00,VWS V14.01,2013-05-01 05:28:00,
2013-05-01 01:33:00,69.3,59.1,29.92,WSW,244,0.0,0.0,70,0.00,,---,0.00,VWS V14.01,2013-05-01 05:33:00,
2013-05-01 01:38:00,69.3,59.1,29.93,South,171,0.0,0.0,70,0.00,,---,0.00,VWS V14.01,2013-05-01 05:38:00,
2013-05-01 01:43:00,69.4,59.2,29.93,SW,226,0.0,0.0,70,0.00,,---,0.00,VWS V14.01,2013-05-01 05:43:00,
2013-05-01 01:48:00,69.3,59.1,29.93,SW,217,0.0,0.0,70,0.00,,---,0.00,VWS V14.01,2013-05-01 05:48:00,
2013-05-01 01:53:00,69.3,59.1,29.94,SSW,204,0.0,0.0,70,0.00,,---,0.00,VWS V14.01,2013-05-01 05:53:00,
2013-05-01 01:58:00,69.3,59.1,29.94,SW,219,0.0,0.0,70,0.00,,---,0.00,VWS V14.01,2013-05-01 05:58:00,
2013-05-01 02:03:00,69.3,59.1,29.94,SW,218,0.0,0.0,70,0.00,,---,0.00,VWS V14.01,2013-05-01 06:03:00,
2013-05-01 02:08:00,69.1,58.9,29.95,South,176,0.0,0.0,70,0.00,,---,0.00,VWS V14.01,2013-05-01 06:08:00,
2013-05-01 02:13:00,69.1,59.3,29.95,WSW,246,0.0,0.0,71,0.00,,---,0.00,VWS V14.01,2013-05-01 06:13:00,
2013-05-01 02:18:00,69.1,59.3,29.95,SSW,200,0.0,0.0,71,0.00,,---,0.00,VWS V14.01,2013-05-01 06:18:00,
2013-05-01 02:23:00,68.9,59.1,29.95,SSW,212,0.0,0.0,71,0.00,,---,0.00,VWS V14.01,2013-05-01 06:23:00,
2013-05-01 02:28:00,68.9,59.1,29.96,SW,229,0.0,0.0,71,0.00,,---,0.00,VWS V14.01,2013-05-01 06:28:00,
2013-05-01 02:33:00,68.8,59.0,29.96,SSW,198,0.0,0.0,71,0.00,,---,0.00,VWS V14.01,2013-05-01 06:33:00,
2013-05-01 02:38:00,68.6,59.2,29.96,SSW,198,0.0,0.0,72,0.00,,---,0.00,VWS V14.01,2013-05-01 06:38:00,
2013-05-01 02:43:00,68.6,59.2,29.96,SSE,161,0.0,0.0,72,0.00,,---,0.00,VWS V14.01,2013-05-01 06:43:00,
2013-05-01 02:48:00,68.6,59.2,29.97,SW,228,0.0,0.0,72,0.00,,---,0.00,VWS V14.01,2013-05-01 06:48:00,
2013-05-01 02:53:00,68.4,59.0,29.97,SW,214,0.0,0.0,72,0.00,,---,0.00,VWS V14.01,2013-05-01 06:53:00,
2013-05-01 02:58:00,68.3,58.9,29.97,SW,223,0.0,0.0,72,0.00,,---,0.00,VWS V14.01,2013-05-01 06:58:00,
2013-05-01 03:03:00,68.1,59.1,29.97,SW,234,0.0,0.0,73,0.00,,---,0.00,VWS V14.01,2013-05-01 07:03:00,
2013-05-01 03:08:00,68.1,59.1,29.97,SW,217,0.0,0.0,73,0.00,,---,0.00,VWS V14.01,2013-05-01 07:08:00,
2013-05-01 03:13:00,67.9,58.9,29.97,SW,222,0.0,0.0,73,0.00,,---,0.00,VWS V14.01,2013-05-01 07:13:00,
2013-05-01 03:18:00,67.9,58.9,29.98,SSW,202,0.0,0.0,73,0.00,,---,0.00,VWS V14.01,2013-05-01 07:18:00,
2013-05-01 03:23:00,67.9,58.9,29.98,SSW,207,0.0,0.0,73,0.00,,---,0.00,VWS V14.01,2013-05-01 07:23:00,
2013-05-01 03:29:00,67.8,58.8,29.98,SW,221,0.0,0.0,73,0.00,,---,0.00,VWS V14.01,2013-05-01 07:29:00,
2013-05-01 03:34:00,67.6,59.0,29.98,SW,223,0.0,0.0,74,0.00,,---,0.00,VWS V14.01,2013-05-01 07:34:00,
2013-05-01 03:39:00,67.4,58.8,29.98,South,174,0.0,0.0,74,0.00,,---,0.00,VWS V14.01,2013-05-01 07:39:00,
2013-05-01 03:44:00,67.4,58.8,29.98,SW,224,0.0,0.0,74,0.00,,---,0.00,VWS V14.01,2013-05-01 07:44:00,
2013-05-01 03:49:00,67.3,59.1,29.98,SSW,209,0.0,0.0,75,0.00,,---,0.00,VWS V14.01,2013-05-01 07:49:00,
2013-05-01 03:54:00,67.3,59.1,29.98,SW,218,0.0,0.0,75,0.00,,---,0.00,VWS V14.01,2013-05-01 07:54:00,
2013-05-01 03:59:00,67.1,58.9,29.98,SSW,205,0.0,0.0,75,0.00,,---,0.00,VWS V14.01,2013-05-01 07:59:00,
2013-05-01 04:04:00,66.9,58.7,29.98,SSW,205,0.0,0.0,75,0.00,,---,0.00,VWS V14.01,2013-05-01 08:04:00,
2013-05-01 04:09:00,66.9,58.7,29.98,SSW,202,0.0,0.0,75,0.00,,---,0.00,VWS V14.01,2013-05-01 08:09:00,
2013-05-01 04:14:00,66.8,58.6,29.98,SSW,205,0.0,0.0,75,0.00,,---,0.00,VWS V14.01,2013-05-01 08:14:00,
2013-05-01 04:19:00,66.8,58.6,29.98,SSW,211,0.0,0.0,75,0.00,,---,0.00,VWS V14.01,2013-05-01 08:19:00,
2013-05-01 04:24:00,66.8,58.6,29.98,SSW,210,0.0,0.0,75,0.00,,---,0.00,VWS V14.01,2013-05-01 08:24:00,
2013-05-01 04:29:00,66.8,58.6,29.99,South,171,0.0,0.0,75,0.00,,---,0.00,VWS V14.01,2013-05-01 08:29:00,
2013-05-01 04:34:00,66.8,58.6,29.99,SSW,213,0.0,0.0,75,0.00,,---,0.00,VWS V14.01,2013-05-01 08:34:00,
2013-05-01 04:39:00,66.8,58.6,30.00,South,189,0.0,0.0,75,0.00,,---,0.00,VWS V14.01,2013-05-01 08:39:00,
2013-05-01 04:44:00,66.6,58.8,30.00,South,169,0.0,0.0,76,0.00,,---,0.00,VWS V14.01,2013-05-01 08:44:00,
2013-05-01 04:49:00,66.4,58.6,30.00,SSW,202,0.0,0.0,76,0.00,,---,0.00,VWS V14.01,2013-05-01 08:49:00,
2013-05-01 04:54:00,66.3,58.9,30.01,SSW,207,0.0,0.0,77,0.00,,---,0.00,VWS V14.01,2013-05-01 08:54:00,
2013-05-01 04:59:00,66.3,58.9,30.01,SSW,207,0.0,0.0,77,0.00,,---,0.00,VWS V14.01,2013-05-01 08:59:00,
2013-05-01 05:04:00,66.1,58.7,30.01,SSW,200,0.0,0.0,77,0.00,,---,0.00,VWS V14.01,2013-05-01 09:04:00,
2013-05-01 05:09:00,66.0,58.6,30.01,South,183,0.0,0.0,77,0.00,,---,0.00,VWS V14.01,2013-05-01 09:09:00,
2013-05-01 05:14:00,65.6,58.6,30.01,South,183,0.0,0.0,78,0.00,,---,0.00,VWS V14.01,2013-05-01 09:14:00,
2013-05-01 05:19:00,65.5,58.8,30.02,South,183,0.0,0.0,79,0.00,,---,0.00,VWS V14.01,2013-05-01 09:19:00,
2013-05-01 05:24:00,65.0,56.2,30.03,NNW,327,0.0,0.0,73,0.00,,---,0.00,VWS V14.01,2013-05-01 09:24:00,
2013-05-01 05:29:00,63.1,54.7,30.03,NNE,24,0.0,0.0,74,0.00,,---,0.00,VWS V14.01,2013-05-01 09:29:00,
2013-05-01 05:34:00,61.6,54.3,30.03,NNE,13,0.0,0.0,77,0.00,,---,0.00,VWS V14.01,2013-05-01 09:34:00,
2013-05-01 05:40:00,60.7,54.2,30.04,North,9,0.0,0.0,79,0.00,,---,0.00,VWS V14.01,2013-05-01 09:40:00,
2013-05-01 05:45:00,59.9,54.1,30.04,North,9,0.0,0.0,81,0.00,,---,0.00,VWS V14.01,2013-05-01 09:45:00,
2013-05-01 05:50:00,59.8,54.3,30.04,WNW,289,0.0,0.0,82,0.00,,---,0.00,VWS V14.01,2013-05-01 09:50:00,
2013-05-01 05:55:00,59.6,54.1,30.05,NW,316,0.0,0.0,82,0.00,,---,0.00,VWS V14.01,2013-05-01 09:55:00,
2013-05-01 06:00:00,59.5,54.0,30.05,NW,316,0.0,0.0,82,0.00,,---,0.00,VWS V14.01,2013-05-01 10:00:00,
2013-05-01 06:05:00,59.3,53.5,30.05,West,261,0.0,0.0,81,0.00,,---,0.00,VWS V14.01,2013-05-01 10:05:00,
2013-05-01 06:10:00,59.2,53.4,30.05,WSW,255,0.0,0.0,81,0.00,,---,0.00,VWS V14.01,2013-05-01 10:10:00,
2013-05-01 06:15:00,58.9,52.8,30.05,West,281,0.0,0.0,80,0.00,,---,0.00,VWS V14.01,2013-05-01 10:15:00,
2013-05-01 06:20:00,58.7,52.9,30.05,West,281,0.0,0.0,81,0.00,,---,0.00,VWS V14.01,2013-05-01 10:20:00,
2013-05-01 06:25:00,58.6,52.8,30.06,WSW,254,0.0,0.0,81,0.00,,---,0.00,VWS V14.01,2013-05-01 10:25:00,
2013-05-01 06:30:00,58.4,52.3,30.06,WSW,256,0.0,0.0,80,0.00,,---,0.00,VWS V14.01,2013-05-01 10:30:00,
2013-05-01 06:35:00,58.4,52.3,30.06,WSW,256,0.0,0.0,80,0.00,,---,0.00,VWS V14.01,2013-05-01 10:35:00,
2013-05-01 06:40:00,58.3,52.2,30.06,WNW,287,0.0,0.0,80,0.00,,---,0.00,VWS V14.01,2013-05-01 10:40:00,
2013-05-01 06:45:00,58.1,52.3,30.06,WSW,250,0.0,0.0,81,0.00,,---,0.00,VWS V14.01,2013-05-01 10:45:00,
2013-05-01 06:50:00,58.0,52.2,30.06,SW,232,0.0,0.0,81,0.00,,---,0.00,VWS V14.01,2013-05-01 10:50:00,
2013-05-01 06:55:00,58.0,52.2,30.06,SSW,202,0.0,0.0,81,0.00,,---,0.00,VWS V14.01,2013-05-01 10:55:00,
2013-05-01 07:00:00,58.0,52.2,30.06,SSW,202,0.0,0.0,81,0.00,,---,0.00,VWS V14.01,2013-05-01 11:00:00,
2013-05-01 07:05:00,58.0,52.2,30.07,SSW,202,0.0,0.0,81,0.00,,---,0.00,VWS V14.01,2013-05-01 11:05:00,
2013-05-01 07:10:00,57.8,52.0,30.07,SSW,202,0.0,0.0,81,0.00,,---,0.00,VWS V14.01,2013-05-01 11:10:00,
2013-05-01 07:15:00,57.8,52.0,30.07,SSW,202,0.0,0.0,81,0.00,,---,0.00,VWS V14.01,2013-05-01 11:15:00,
2013-05-01 07:20:00,57.8,52.3,30.07,SSW,202,0.0,0.0,82,0.00,,---,0.00,VWS V14.01,2013-05-01 11:20:00,
2013-05-01 07:25:00,57.8,52.3,30.07,SSW,202,0.0,0.0,82,0.00,,---,0.00,VWS V14.01,2013-05-01 11:25:00,
2013-05-01 07:30:00,58.0,52.5,30.07,SSW,202,0.0,0.0,82,0.00,,---,0.00,VWS V14.01,2013-05-01 11:30:00,
2013-05-01 07:35:00,58.1,52.6,30.07,SSW,202,0.0,0.0,82,0.00,,---,0.00,VWS V14.01,2013-05-01 11:35:00,
2013-05-01 07:40:00,58.3,52.8,30.07,SSW,202,0.0,0.0,82,0.00,,---,0.00,VWS V14.01,2013-05-01 11:40:00,
2013-05-01 07:45:00,58.4,52.9,30.07,SSW,202,0.0,0.0,82,0.00,,---,0.00,VWS V14.01,2013-05-01 11:45:00,
2013-05-01 07:50:00,58.6,52.8,30.07,SSW,202,0.0,0.0,81,0.00,,---,0.00,VWS V14.01,2013-05-01 11:50:00,
2013-05-01 07:55:00,58.6,53.1,30.07,SSW,202,0.0,0.0,82,0.00,,---,0.00,VWS V14.01,2013-05-01 11:55:00,
2013-05-01 08:00:00,58.7,53.2,30.07,SSW,202,0.0,0.0,82,0.00,,---,0.00,VWS V14.01,2013-05-01 12:00:00,
2013-05-01 08:05:00,58.7,53.2,30.07,SSW,202,0.0,0.0,82,0.00,,---,0.00,VWS V14.01,2013-05-01 12:05:00,
2013-05-01 08:10:00,58.7,53.2,30.07,SSW,202,0.0,0.0,82,0.00,,---,0.00,VWS V14.01,2013-05-01 12:10:00,
2013-05-01 08:15:00,58.7,53.2,30.07,SSW,202,0.0,0.0,82,0.00,,---,0.00,VWS V14.01,2013-05-01 12:15:00,
2013-05-01 08:20:00,58.9,53.4,30.07,SSW,202,0.0,0.0,82,0.00,,---,0.00,VWS V14.01,2013-05-01 12:20:00,
2013-05-01 08:25:00,58.9,53.4,30.08,SSW,202,0.0,0.0,82,0.00,,---,0.00,VWS V14.01,2013-05-01 12:25:00,
2013-05-01 08:30:00,58.9,53.4,30.08,SSW,202,0.0,0.0,82,0.00,,---,0.00,VWS V14.01,2013-05-01 12:30:00,
2013-05-01 08:36:00,58.9,53.4,30.08,SSW,202,0.0,0.0,82,0.00,,---,0.00,VWS V14.01,2013-05-01 12:36:00,
2013-05-01 08:41:00,59.0,53.8,30.08,SSW,202,0.0,0.0,83,0.00,,---,0.00,VWS V14.01,2013-05-01 12:41:00,
2013-05-01 08:46:00,59.2,54.0,30.08,SSW,202,0.0,0.0,83,0.00,,---,0.00,VWS V14.01,2013-05-01 12:46:00,
2013-05-01 08:51:00,59.5,54.7,30.08,SSW,202,0.0,0.0,84,0.00,,---,0.00,VWS V14.01,2013-05-01 12:51:00,
2013-05-01 08:56:00,60.2,55.0,30.08,SSW,202,0.0,0.0,83,0.00,,---,0.00,VWS V14.01,2013-05-01 12:56:00,
2013-05-01 09:01:00,61.2,55.0,30.08,SSW,202,0.0,0.0,80,0.00,,---,0.00,VWS V14.01,2013-05-01 13:01:00,
2013-05-01 09:06:00,62.6,56.0,30.08,SSW,202,0.0,0.0,79,0.00,,---,0.00,VWS V14.01,2013-05-01 13:06:00,
2013-05-01 09:11:00,64.0,56.7,30.08,SSW,200,0.0,0.0,77,0.00,,---,0.00,VWS V14.01,2013-05-01 13:11:00,
2013-05-01 09:16:00,65.5,57.0,30.08,South,185,0.0,0.0,74,0.00,,---,0.00,VWS V14.01,2013-05-01 13:16:00,
2013-05-01 09:21:00,67.1,57.8,30.08,SSW,197,0.0,0.0,72,0.00,,---,0.00,VWS V14.01,2013-05-01 13:21:00,
2013-05-01 09:26:00,67.8,58.1,30.08,SW,217,0.0,0.0,71,0.00,,---,0.00,VWS V14.01,2013-05-01 13:26:00,
2013-05-01 09:31:00,68.4,58.2,30.08,SW,226,0.0,0.0,70,0.00,,---,0.00,VWS V14.01,2013-05-01 13:31:00,
2013-05-01 09:36:00,69.3,58.7,30.08,South,178,0.0,0.0,69,0.00,,---,0.00,VWS V14.01,2013-05-01 13:36:00,
2013-05-01 09:41:00,70.3,59.2,30.08,SSW,202,0.0,0.0,68,0.00,,---,0.00,VWS V14.01,2013-05-01 13:41:00,
2013-05-01 09:46:00,71.3,60.2,30.08,WSW,249,0.0,0.0,68,0.00,,---,0.00,VWS V14.01,2013-05-01 13:46:00,
2013-05-01 09:51:00,72.0,59.6,30.08,SW,219,0.0,0.0,65,0.00,,---,0.00,VWS V14.01,2013-05-01 13:51:00,
2013-05-01 09:56:00,72.7,59.4,30.08,West,263,0.0,0.0,63,0.00,,---,0.00,VWS V14.01,2013-05-01 13:56:00,
2013-05-01 10:01:00,73.0,59.7,30.08,SSW,199,0.0,0.0,63,0.00,,---,0.00,VWS V14.01,2013-05-01 14:01:00,
2013-05-01 10:06:00,73.5,59.7,30.08,SSW,213,0.0,0.0,62,0.00,,---,0.00,VWS V14.01,2013-05-01 14:06:00,
2013-05-01 10:11:00,74.0,59.7,30.08,South,179,0.0,0.0,61,0.00,,---,0.00,VWS V14.01,2013-05-01 14:11:00,
2013-05-01 10:16:00,74.4,59.6,30.09,SSW,212,0.0,0.0,60,0.00,,---,0.00,VWS V14.01,2013-05-01 14:16:00,
2013-05-01 10:21:00,74.4,59.2,30.09,SW,225,0.0,0.0,59,0.00,,---,0.00,VWS V14.01,2013-05-01 14:21:00,
2013-05-01 10:26:00,74.4,59.2,30.09,WSW,241,0.0,0.0,59,0.00,,---,0.00,VWS V14.01,2013-05-01 14:26:00,
2013-05-01 10:31:00,74.2,59.0,30.09,West,269,0.0,0.0,59,0.00,,---,0.00,VWS V14.01,2013-05-01 14:31:00,
2013-05-01 10:36:00,74.2,59.0,30.09,WNW,286,0.0,0.0,59,0.00,,---,0.00,VWS V14.01,2013-05-01 14:36:00,
2013-05-01 10:41:00,74.2,59.0,30.10,NW,305,0.0,0.0,59,0.00,,---,0.00,VWS V14.01,2013-05-01 14:41:00,
2013-05-01 10:46:00,74.6,58.9,30.09,NNW,329,0.0,0.0,58,0.00,,---,0.00,VWS V14.01,2013-05-01 14:46:00,
2013-05-01 10:51:00,73.3,57.2,30.10,NW,315,0.0,0.0,57,0.00,,---,0.00,VWS V14.01,2013-05-01 14:51:00,
2013-05-01 10:56:00,71.8,57.6,30.09,NW,318,0.0,0.0,61,0.00,,---,0.00,VWS V14.01,2013-05-01 14:56:00,
2013-05-01 11:01:00,72.8,57.7,30.10,WSW,238,0.0,0.0,59,0.00,,---,0.00,VWS V14.01,2013-05-01 15:01:00,
2013-05-01 11:06:00,73.3,58.6,30.10,North,11,0.0,0.0,60,0.00,,---,0.00,VWS V14.01,2013-05-01 15:06:00,
2013-05-01 11:11:00,73.5,57.8,30.10,NW,313,0.0,0.0,58,0.00,,---,0.00,VWS V14.01,2013-05-01 15:11:00,
2013-05-01 11:16:00,71.8,54.8,30.11,NE,38,0.0,0.0,55,0.00,,---,0.00,VWS V14.01,2013-05-01 15:16:00,
2013-05-01 11:21:00,68.4,54.9,30.11,North,10,0.0,0.0,62,0.00,,---,0.00,VWS V14.01,2013-05-01 15:21:00,
2013-05-01 11:26:00,67.1,54.5,30.11,North,355,0.0,0.0,64,0.00,,---,0.00,VWS V14.01,2013-05-01 15:26:00,
2013-05-01 11:31:00,66.0,53.5,30.12,North,355,0.0,0.0,64,0.00,,---,0.00,VWS V14.01,2013-05-01 15:31:00,
2013-05-01 11:36:00,64.3,52.7,30.12,NNE,29,0.0,0.0,66,0.00,,---,0.00,VWS V14.01,2013-05-01 15:36:00,
2013-05-01 11:41:00,64.2,53.4,30.12,North,355,0.0,0.0,68,0.00,,---,0.00,VWS V14.01,2013-05-01 15:41:00,
2013-05-01 11:46:00,64.5,53.3,30.12,NNE,22,0.0,0.0,67,0.00,,---,0.00,VWS V14.01,2013-05-01 15:46:00,
2013-05-01 11:51:00,64.3,52.7,30.13,NE,53,0.0,0.0,66,0.00,,---,0.00,VWS V14.01,2013-05-01 15:51:00,
2013-05-01 11:56:00,64.3,53.1,30.13,NE,42,0.0,0.0,67,0.00,,---,0.00,VWS V14.01,2013-05-01 15:56:00,
2013-05-01 12:01:00,64.5,53.7,30.13,NNE,32,0.0,0.0,68,0.00,,---,0.00,VWS V14.01,2013-05-01 16:01:00,
2013-05-01 12:06:00,64.8,54.4,30.13,NNE,26,0.0,0.0,69,0.00,,---,0.00,VWS V14.01,2013-05-01 16:06:00,
2013-05-01 12:11:00,65.6,54.0,30.13,North,360,0.0,0.0,66,0.00,,---,0.00,VWS V14.01,2013-05-01 16:11:00,
2013-05-01 12:17:00,66.3,54.2,30.13,NNE,33,0.0,0.0,65,0.00,,---,0.00,VWS V14.01,2013-05-01 16:17:00,
2013-05-01 12:22:00,66.4,53.4,30.13,NNE,30,0.0,0.0,63,0.00,,---,0.00,VWS V14.01,2013-05-01 16:22:00,
2013-05-01 12:27:00,66.8,53.8,30.13,NE,35,0.0,0.0,63,0.00,,---,0.00,VWS V14.01,2013-05-01 16:27:00,
2013-05-01 12:32:00,67.1,53.2,30.13,North,360,0.0,0.0,61,0.00,,---,0.00,VWS V14.01,2013-05-01 16:32:00,
2013-05-01 12:37:00,67.6,53.7,30.13,NNE,13,0.0,0.0,61,0.00,,---,0.00,VWS V14.01,2013-05-01 16:37:00,
2013-05-01 12:42:00,67.6,53.2,30.14,NNE,24,0.0,0.0,60,0.00,,---,0.00,VWS V14.01,2013-05-01 16:42:00,
2013-05-01 12:47:00,67.6,53.2,30.14,NNE,26,0.0,0.0,60,0.00,,---,0.00,VWS V14.01,2013-05-01 16:47:00,
2013-05-01 12:52:00,68.1,54.2,30.14,North,360,0.0,0.0,61,0.00,,---,0.00,VWS V14.01,2013-05-01 16:52:00,
2013-05-01 12:57:00,68.4,54.0,30.14,NE,35,0.0,0.0,60,0.00,,---,0.00,VWS V14.01,2013-05-01 16:57:00,
2013-05-01 13:02:00,68.4,54.4,30.14,NNE,15,0.0,0.0,61,0.00,,---,0.00,VWS V14.01,2013-05-01 17:02:00,
2013-05-01 13:07:00,68.9,54.0,30.14,NE,42,0.0,0.0,59,0.00,,---,0.00,VWS V14.01,2013-05-01 17:07:00,
2013-05-01 13:12:00,68.8,55.3,30.14,NNE,30,0.0,0.0,62,0.00,,---,0.00,VWS V14.01,2013-05-01 17:12:00,
2013-05-01 13:17:00,68.8,54.4,30.13,NE,41,0.0,0.0,60,0.00,,---,0.00,VWS V14.01,2013-05-01 17:17:00,
2013-05-01 13:22:00,68.6,55.1,30.13,NE,40,0.0,0.0,62,0.00,,---,0.00,VWS V14.01,2013-05-01 17:22:00,
2013-05-01 13:27:00,68.6,56.0,30.14,NNE,25,0.0,0.0,64,0.00,,---,0.00,VWS V14.01,2013-05-01 17:27:00,
2013-05-01 13:32:00,68.6,54.6,30.14,ENE,59,0.0,0.0,61,0.00,,---,0.00,VWS V14.01,2013-05-01 17:32:00,
2013-05-01 13:37:00,68.9,54.5,30.14,North,11,0.0,0.0,60,0.00,,---,0.00,VWS V14.01,2013-05-01 17:37:00,
2013-05-01 13:42:00,69.1,54.2,30.14,NNE,22,0.0,0.0,59,0.00,,---,0.00,VWS V14.01,2013-05-01 17:42:00,
2013-05-01 13:47:00,68.4,54.4,30.14,NE,34,0.0,0.0,61,0.00,,---,0.00,VWS V14.01,2013-05-01 17:47:00,
2013-05-01 13:52:00,68.3,54.8,30.14,NNE,19,0.0,0.0,62,0.00,,---,0.00,VWS V14.01,2013-05-01 17:52:00,
2013-05-01 13:57:00,67.8,53.4,30.14,NNE,31,0.0,0.0,60,0.00,,---,0.00,VWS V14.01,2013-05-01 17:57:00,
2013-05-01 14:02:00,67.3,53.8,30.15,NNE,22,0.0,0.0,62,0.00,,---,0.00,VWS V14.01,2013-05-01 18:02:00,
2013-05-01 14:07:00,67.6,55.4,30.14,North,11,0.0,0.0,65,0.00,,---,0.00,VWS V14.01,2013-05-01 18:07:00,
2013-05-01 14:12:00,67.9,54.0,30.14,North,355,0.0,0.0,61,0.00,,---,0.00,VWS V14.01,2013-05-01 18:12:00,
2013-05-01 14:17:00,67.6,54.1,30.15,NE,42,0.0,0.0,62,0.00,,---,0.00,VWS V14.01,2013-05-01 18:17:00,
2013-05-01 14:22:00,67.4,54.4,30.15,NE,42,0.0,0.0,63,0.00,,---,0.00,VWS V14.01,2013-05-01 18:22:00,
2013-05-01 14:27:00,67.6,54.1,30.15,NE,46,0.0,0.0,62,0.00,,---,0.00,VWS V14.01,2013-05-01 18:27:00,
2013-05-01 14:32:00,67.4,54.8,30.15,NE,38,0.0,0.0,64,0.00,,---,0.00,VWS V14.01,2013-05-01 18:32:00,
2013-05-01 14:37:00,67.4,54.4,30.15,North,9,0.0,0.0,63,0.00,,---,0.00,VWS V14.01,2013-05-01 18:37:00,
2013-05-01 14:42:00,67.8,54.3,30.15,NE,55,0.0,0.0,62,0.00,,---,0.00,VWS V14.01,2013-05-01 18:42:00,
2013-05-01 14:47:00,67.9,54.4,30.15,ENE,58,0.0,0.0,62,0.00,,---,0.00,VWS V14.01,2013-05-01 18:47:00,
2013-05-01 14:52:00,67.9,54.0,30.15,NE,37,0.0,0.0,61,0.00,,---,0.00,VWS V14.01,2013-05-01 18:52:00,
2013-05-01 14:57:00,67.6,55.0,30.15,NE,49,0.0,0.0,64,0.00,,---,0.00,VWS V14.01,2013-05-01 18:57:00,
2013-05-01 15:02:00,67.6,54.1,30.15,NE,34,0.0,0.0,62,0.00,,---,0.00,VWS V14.01,2013-05-01 19:02:00,
2013-05-01 15:07:00,67.6,54.6,30.15,NNE,29,0.0,0.0,63,0.00,,---,0.00,VWS V14.01,2013-05-01 19:07:00,
2013-05-01 15:12:00,67.8,54.3,30.16,NE,42,0.0,0.0,62,0.00,,---,0.00,VWS V14.01,2013-05-01 19:12:00,
2013-05-01 15:18:00,67.9,55.7,30.16,NE,48,0.0,0.0,65,0.00,,---,0.00,VWS V14.01,2013-05-01 19:18:00,
2013-05-01 15:23:00,68.6,55.5,30.16,NE,40,0.0,0.0,63,0.00,,---,0.00,VWS V14.01,2013-05-01 19:23:00,
2013-05-01 15:28:00,69.1,56.0,30.16,NNE,22,0.0,0.0,63,0.00,,---,0.00,VWS V14.01,2013-05-01 19:28:00,
2013-05-01 15:33:00,69.3,55.3,30.16,North,355,0.0,0.0,61,0.00,,---,0.00,VWS V14.01,2013-05-01 19:33:00,
2013-05-01 15:38:00,69.6,55.6,30.16,NE,34,0.0,0.0,61,0.00,,---,0.00,VWS V14.01,2013-05-01 19:38:00,
2013-05-01 15:43:00,69.3,54.8,30.16,NE,37,0.0,0.0,60,0.00,,---,0.00,VWS V14.01,2013-05-01 19:43:00,
2013-05-01 15:48:00,68.9,55.4,30.16,NNE,16,0.0,0.0,62,0.00,,---,0.00,VWS V14.01,2013-05-01 19:48:00,
2013-05-01 15:53:00,68.8,55.3,30.16,NE,49,0.0,0.0,62,0.00,,---,0.00,VWS V14.01,2013-05-01 19:53:00,
2013-05-01 15:58:00,68.4,55.3,30.16,NNE,18,0.0,0.0,63,0.00,,---,0.00,VWS V14.01,2013-05-01 19:58:00,
2013-05-01 16:03:00,68.4,54.9,30.16,ENE,63,0.0,0.0,62,0.00,,---,0.00,VWS V14.01,2013-05-01 20:03:00,
2013-05-01 16:08:00,68.9,55.4,30.16,NNE,32,0.0,0.0,62,0.00,,---,0.00,VWS V14.01,2013-05-01 20:08:00,
2013-05-01 16:13:00,69.8,56.2,30.16,ENE,65,0.0,0.0,62,0.00,,---,0.00,VWS V14.01,2013-05-01 20:13:00,
2013-05-01 16:18:00,70.1,56.0,30.16,NE,38,0.0,0.0,61,0.00,,---,0.00,VWS V14.01,2013-05-01 20:18:00,
2013-05-01 16:23:00,70.3,55.8,30.16,NNE,32,0.0,0.0,60,0.00,,---,0.00,VWS V14.01,2013-05-01 20:23:00,
2013-05-01 16:28:00,70.6,56.1,30.16,NE,35,0.0,0.0,60,0.00,,---,0.00,VWS V14.01,2013-05-01 20:28:00,
2013-05-01 16:33:00,70.8,55.8,30.16,ENE,78,0.0,0.0,59,0.00,,---,0.00,VWS V14.01,2013-05-01 20:33:00,
2013-05-01 16:38:00,70.9,56.3,30.16,NNE,29,0.0,0.0,60,0.00,,---,0.00,VWS V14.01,2013-05-01 20:38:00,
2013-05-01 16:43:00,71.5,56.9,30.16,NNE,27,0.0,0.0,60,0.00,,---,0.00,VWS V14.01,2013-05-01 20:43:00,
2013-05-01 16:48:00,71.5,56.4,30.16,NE,35,0.0,0.0,59,0.00,,---,0.00,VWS V14.01,2013-05-01 20:48:00,
2013-05-01 16:53:00,71.3,56.7,30.16,ENE,58,0.0,0.0,60,0.00,,---,0.00,VWS V14.01,2013-05-01 20:53:00,
2013-05-01 16:58:00,71.5,56.4,30.16,NNE,33,0.0,0.0,59,0.00,,---,0.00,VWS V14.01,2013-05-01 20:58:00,
2013-05-01 17:03:00,71.3,55.8,30.16,NE,55,0.0,0.0,58,0.00,,---,0.00,VWS V14.01,2013-05-01 21:03:00,
2013-05-01 17:08:00,71.1,56.1,30.16,NNE,12,0.0,0.0,59,0.00,,---,0.00,VWS V14.01,2013-05-01 21:08:00,
2013-05-01 17:13:00,70.8,54.3,30.16,ENE,57,0.0,0.0,56,0.00,,---,0.00,VWS V14.01,2013-05-01 21:13:00,
2013-05-01 17:18:00,69.8,53.9,30.17,ENE,57,0.0,0.0,57,0.00,,---,0.00,VWS V14.01,2013-05-01 21:18:00,
2013-05-01 17:23:00,68.8,53.9,30.17,NNE,19,0.0,0.0,59,0.00,,---,0.00,VWS V14.01,2013-05-01 21:23:00,
2013-05-01 17:28:00,68.1,54.2,30.17,NNE,21,0.0,0.0,61,0.00,,---,0.00,VWS V14.01,2013-05-01 21:28:00,
2013-05-01 17:33:00,67.8,54.3,30.17,NE,44,0.0,0.0,62,0.00,,---,0.00,VWS V14.01,2013-05-01 21:33:00,
2013-05-01 17:38:00,67.8,54.8,30.17,NNE,30,0.0,0.0,63,0.00,,---,0.00,VWS V14.01,2013-05-01 21:38:00,
2013-05-01 17:43:00,67.6,53.2,30.17,NNE,31,0.0,0.0,60,0.00,,---,0.00,VWS V14.01,2013-05-01 21:43:00,
2013-05-01 17:48:00,67.4,53.0,30.18,NE,45,0.0,0.0,60,0.00,,---,0.00,VWS V14.01,2013-05-01 21:48:00,
2013-05-01 17:53:00,67.1,52.3,30.18,NE,34,0.0,0.0,59,0.00,,---,0.00,VWS V14.01,2013-05-01 21:53:00,
2013-05-01 17:59:00,66.4,51.2,30.18,NNE,28,0.0,0.0,58,0.00,,---,0.00,VWS V14.01,2013-05-01 21:59:00,
2013-05-01 18:04:00,66.1,50.9,30.18,NNE,15,0.0,0.0,58,0.00,,---,0.00,VWS V14.01,2013-05-01 22:04:00,
2013-05-01 18:09:00,65.8,51.1,30.18,North,11,0.0,0.0,59,0.00,,---,0.00,VWS V14.01,2013-05-01 22:09:00,
2013-05-01 18:14:00,65.2,50.5,30.19,North,9,0.0,0.0,59,0.00,,---,0.00,VWS V14.01,2013-05-01 22:14:00,
2013-05-01 18:19:00,64.0,50.3,30.19,North,355,0.0,0.0,61,0.00,,---,0.00,VWS V14.01,2013-05-01 22:19:00,
2013-05-01 18:24:00,62.9,49.3,30.19,North,5,0.0,0.0,61,0.00,,---,0.00,VWS V14.01,2013-05-01 22:24:00,
2013-05-01 18:29:00,62.4,48.8,30.19,North,5,0.0,0.0,61,0.00,,---,0.00,VWS V14.01,2013-05-01 22:29:00,
2013-05-01 18:34:00,61.8,48.2,30.20,North,9,0.0,0.0,61,0.00,,---,0.00,VWS V14.01,2013-05-01 22:34:00,
2013-05-01 18:39:00,61.3,46.4,30.20,NNE,17,0.0,0.0,58,0.00,,---,0.00,VWS V14.01,2013-05-01 22:39:00,
2013-05-01 18:44:00,60.9,46.0,30.20,NE,34,0.0,0.0,58,0.00,,---,0.00,VWS V14.01,2013-05-01 22:44:00,
2013-05-01 18:49:00,60.4,44.2,30.20,NNE,32,0.0,0.0,55,0.00,,---,0.00,VWS V14.01,2013-05-01 22:49:00,
2013-05-01 18:54:00,59.6,43.4,30.20,North,11,0.0,0.0,55,0.00,,---,0.00,VWS V14.01,2013-05-01 22:54:00,
2013-05-01 18:59:00,59.0,41.9,30.20,NNE,33,0.0,0.0,53,0.00,,---,0.00,VWS V14.01,2013-05-01 22:59:00,
2013-05-01 19:04:00,58.6,41.5,30.21,NNE,24,0.0,0.0,53,0.00,,---,0.00,VWS V14.01,2013-05-01 23:04:00,
2013-05-01 19:09:00,58.0,41.0,30.21,NNE,33,0.0,0.0,53,0.00,,---,0.00,VWS V14.01,2013-05-01 23:09:00,
2013-05-01 19:14:00,57.3,40.3,30.21,North,5,0.0,0.0,53,0.00,,---,0.00,VWS V14.01,2013-05-01 23:14:00,
2013-05-01 19:19:00,56.9,40.4,30.22,NE,52,0.0,0.0,54,0.00,,---,0.00,VWS V14.01,2013-05-01 23:19:00,
2013-05-01 19:24:00,56.6,40.6,30.22,NNE,13,0.0,0.0,55,0.00,,---,0.00,VWS V14.01,2013-05-01 23:24:00,
2013-05-01 19:29:00,56.3,40.8,30.22,North,5,0.0,0.0,56,0.00,,---,0.00,VWS V14.01,2013-05-01 23:29:00,
2013-05-01 19:34:00,55.9,40.0,30.22,NNE,24,0.0,0.0,55,0.00,,---,0.00,VWS V14.01,2013-05-01 23:34:00,
2013-05-01 19:39:00,55.4,40.0,30.22,NE,51,0.0,0.0,56,0.00,,---,0.00,VWS V14.01,2013-05-01 23:39:00,
2013-05-01 19:44:00,55.0,40.1,30.23,North,355,0.0,0.0,57,0.00,,---,0.00,VWS V14.01,2013-05-01 23:44:00,
2013-05-01 19:49:00,54.7,40.2,30.23,North,350,0.0,0.0,58,0.00,,---,0.00,VWS V14.01,2013-05-01 23:49:00,
2013-05-01 19:54:00,54.5,40.0,30.23,NNW,346,0.0,0.0,58,0.00,,---,0.00,VWS V14.01,2013-05-01 23:54:00,
2013-05-01 19:59:00,54.4,40.0,30.23,North,11,0.0,0.0,58,0.00,,---,0.00,VWS V14.01,2013-05-01 23:59:00,
2013-05-01 20:04:00,54.1,39.7,30.23,North,5,0.0,0.0,58,0.00,,---,0.00,VWS V14.01,2013-05-02 00:04:00,
2013-05-01 20:09:00,53.8,39.8,30.23,NNE,13,0.0,0.0,59,0.00,,---,0.00,VWS V14.01,2013-05-02 00:09:00,
2013-05-01 20:14:00,53.3,39.8,30.24,North,5,0.0,0.0,60,0.00,,---,0.00,VWS V14.01,2013-05-02 00:14:00,
2013-05-01 20:19:00,52.9,39.4,30.24,North,355,0.0,0.0,60,0.00,,---,0.00,VWS V14.01,2013-05-02 00:19:00,
2013-05-01 20:24:00,52.5,39.0,30.24,North,9,0.0,0.0,60,0.00,,---,0.00,VWS V14.01,2013-05-02 00:24:00,
2013-05-01 20:29:00,52.2,39.2,30.24,North,11,0.0,0.0,61,0.00,,---,0.00,VWS V14.01,2013-05-02 00:29:00,
2013-05-01 20:35:00,51.9,39.3,30.25,NNE,21,0.0,0.0,62,0.00,,---,0.00,VWS V14.01,2013-05-02 00:35:00,
2013-05-01 20:40:00,51.6,39.0,30.25,NNE,28,0.0,0.0,62,0.00,,---,0.00,VWS V14.01,2013-05-02 00:40:00,
2013-05-01 20:45:00,51.3,38.7,30.25,North,355,0.0,0.0,62,0.00,,---,0.00,VWS V14.01,2013-05-02 00:45:00,
2013-05-01 20:50:00,51.1,39.0,30.25,North,5,0.0,0.0,63,0.00,,---,0.00,VWS V14.01,2013-05-02 00:50:00,
2013-05-01 20:55:00,50.8,38.3,30.26,NNE,31,0.0,0.0,62,0.00,,---,0.00,VWS V14.01,2013-05-02 00:55:00,
2013-05-01 21:00:00,50.7,38.6,30.26,NNW,348,0.0,0.0,63,0.00,,---,0.00,VWS V14.01,2013-05-02 01:00:00,
2013-05-01 21:05:00,50.4,38.3,30.26,NNE,12,0.0,0.0,63,0.00,,---,0.00,VWS V14.01,2013-05-02 01:05:00,
2013-05-01 21:10:00,50.2,38.5,30.26,NE,36,0.0,0.0,64,0.00,,---,0.00,VWS V14.01,2013-05-02 01:10:00,
2013-05-01 21:15:00,50.1,38.4,30.26,NE,41,0.0,0.0,64,0.00,,---,0.00,VWS V14.01,2013-05-02 01:15:00,
2013-05-01 21:20:00,49.9,38.6,30.26,NNE,17,0.0,0.0,65,0.00,,---,0.00,VWS V14.01,2013-05-02 01:20:00,
2013-05-01 21:25:00,49.8,38.5,30.27,NNE,22,0.0,0.0,65,0.00,,---,0.00,VWS V14.01,2013-05-02 01:25:00,
2013-05-01 21:30:00,49.6,38.3,30.27,NNE,28,0.0,0.0,65,0.00,,---,0.00,VWS V14.01,2013-05-02 01:30:00,
2013-05-01 21:35:00,49.6,38.7,30.27,North,9,0.0,0.0,66,0.00,,---,0.00,VWS V14.01,2013-05-02 01:35:00,
2013-05-01 21:40:00,49.6,38.7,30.27,NNE,17,0.0,0.0,66,0.00,,---,0.00,VWS V14.01,2013-05-02 01:40:00,
2013-05-01 21:45:00,49.6,38.7,30.28,NNE,20,0.0,0.0,66,0.00,,---,0.00,VWS V14.01,2013-05-02 01:45:00,
2013-05-01 21:50:00,49.6,38.7,30.28,NNE,27,0.0,0.0,66,0.00,,---,0.00,VWS V14.01,2013-05-02 01:50:00,
2013-05-01 21:55:00,49.6,38.7,30.28,NNE,24,0.0,0.0,66,0.00,,---,0.00,VWS V14.01,2013-05-02 01:55:00,
2013-05-01 22:00:00,49.6,38.7,30.29,NE,37,0.0,0.0,66,0.00,,---,0.00,VWS V14.01,2013-05-02 02:00:00,
2013-05-01 22:05:00,49.6,38.7,30.29,NE,44,0.0,0.0,66,0.00,,---,0.00,VWS V14.01,2013-05-02 02:05:00,
2013-05-01 22:10:00,49.6,38.7,30.29,NNE,18,0.0,0.0,66,0.00,,---,0.00,VWS V14.01,2013-05-02 02:10:00,
2013-05-01 22:15:00,49.5,38.2,30.29,North,5,0.0,0.0,65,0.00,,---,0.00,VWS V14.01,2013-05-02 02:15:00,
2013-05-01 22:20:00,49.4,38.5,30.30,NNE,19,0.0,0.0,66,0.00,,---,0.00,VWS V14.01,2013-05-02 02:20:00,
2013-05-01 22:25:00,49.1,37.9,30.30,NE,36,0.0,0.0,65,0.00,,---,0.00,VWS V14.01,2013-05-02 02:25:00,
2013-05-01 22:30:00,48.8,37.6,30.30,North,11,0.0,0.0,65,0.00,,---,0.00,VWS V14.01,2013-05-02 02:30:00,
2013-05-01 22:35:00,48.5,37.3,30.30,NE,40,0.0,0.0,65,0.00,,---,0.00,VWS V14.01,2013-05-02 02:35:00,
2013-05-01 22:40:00,48.0,37.6,30.30,NE,50,0.0,0.0,67,0.00,,---,0.00,VWS V14.01,2013-05-02 02:40:00,
2013-05-01 22:45:00,47.7,37.7,30.30,NNE,27,0.0,0.0,68,0.00,,---,0.00,VWS V14.01,2013-05-02 02:45:00,
2013-05-01 22:50:00,47.3,37.3,30.30,NNE,30,0.0,0.0,68,0.00,,---,0.00,VWS V14.01,2013-05-02 02:50:00,
2013-05-01 22:55:00,47.1,37.1,30.30,North,355,0.0,0.0,68,0.00,,---,0.00,VWS V14.01,2013-05-02 02:55:00,
2013-05-01 23:00:00,46.8,37.2,30.30,NNE,30,0.0,0.0,69,0.00,,---,0.00,VWS V14.01,2013-05-02 03:00:00,
2013-05-01 23:05:00,46.7,37.1,30.30,NNE,14,0.0,0.0,69,0.00,,---,0.00,VWS V14.01,2013-05-02 03:05:00,
2013-05-01 23:10:00,46.4,37.2,30.30,North,360,0.0,0.0,70,0.00,,---,0.00,VWS V14.01,2013-05-02 03:10:00,
2013-05-01 23:15:00,46.1,36.9,30.30,NNE,30,0.0,0.0,70,0.00,,---,0.00,VWS V14.01,2013-05-02 03:15:00,
2013-05-01 23:20:00,45.8,37.0,30.30,NNE,18,0.0,0.0,71,0.00,,---,0.00,VWS V14.01,2013-05-02 03:20:00,
2013-05-01 23:26:00,45.7,36.8,30.30,NE,38,0.0,0.0,71,0.00,,---,0.00,VWS V14.01,2013-05-02 03:26:00,
2013-05-01 23:31:00,45.5,37.0,30.30,North,5,0.0,0.0,72,0.00,,---,0.00,VWS V14.01,2013-05-02 03:31:00,
2013-05-01 23:36:00,45.2,36.7,30.30,North,360,0.0,0.0,72,0.00,,---,0.00,VWS V14.01,2013-05-02 03:36:00,
2013-05-01 23:41:00,45.1,36.6,30.30,NNE,19,0.0,0.0,72,0.00,,---,0.00,VWS V14.01,2013-05-02 03:41:00,
2013-05-01 23:46:00,44.9,36.8,30.30,NNE,23,0.0,0.0,73,0.00,,---,0.00,VWS V14.01,2013-05-02 03:46:00,
2013-05-01 23:51:00,44.8,36.7,30.30,North,5,0.0,0.0,73,0.00,,---,0.00,VWS V14.01,2013-05-02 03:51:00,
2013-05-01 23:56:00,44.6,36.5,30.31,NNE,23,0.0,0.0,73,0.00,,---,0.00,VWS V14.01,2013-05-02 03:56:00,